User: anonymous
Location: Unspecified
(0.0000°N, 0.0000°E)
Time: 15:02:10
(UTC+02:00)
Language:

Cosmos 1300 - Orbit

View from above orbital plane
View from above orbital plane
View from above satellite
View from above satellite

Ground track
Ground track

The orbit data is extracted from the following two-line orbital elements,

1 12785U 81082A   14292.75164139  .00006479  00000-0  37644-3 0  8471
2 12785 082.5038 311.3599 0002516 068.8703 342.5658 15.11942883804746
Epoch (UTC): 19 October 2014 18:02:21
Eccentricity: 0.0002516
inclination: 82.5038°
perigee height: 528 km
apogee height: 532 km
right ascension of ascending node: 311.3599°
argument of perigee: 68.8703°
revolutions per day: 15.11942883
mean anomaly at epoch: 342.5658°
orbit number at epoch: 80474

The dashed part of the orbit path shows where the satellite is in the earth's shadow,  

DLR